Monclova, OH

11:46 AM EST on February 09, 2016 (GMT -0500)
Toledo Express

Weather History for KTOL - February, 2013

Change the Weather History Date:

Saturday, February 16, 2013

  Actual Average Record
Temperature  
Mean Temperature 22 °F 28 °F  
Max Temperature 29 °F 36 °F 65 °F (1883)
Min Temperature 15 °F 21 °F -9 °F (2015)
Degree Days  
Heating Degree Days 43 37  
Month to date heating degree days 631 610  
Since 1 July heating degree days 4023 4159  
Cooling Degree Days 0 0  
Month to date cooling degree days 0 0  
Year to date cooling degree days 0 0  
Moisture  
Dew Point 13 °F    
Average Humidity 67    
Maximum Humidity 84    
Minimum Humidity 49    
Precipitation  
Precipitation T in 0.07 in 1.51 in (1976)
Month to date precipitation 0.55 1.13  
Year to date precipitation 4.17 3.18  
Snow  
Snow 0.10 in 0.30 in - ()
Month to date snowfall 7.8 5.7  
Since 1 July snowfall 17.9 26.8  
Snow Depth 0.00 in    
Sea Level Pressure  
Sea Level Pressure 30.06 in    
Wind  
Wind Speed 8 mph (WNW)    
Max Wind Speed 21 mph    
Max Gust Speed 24 mph    
Visibility 8 miles    
Events Snow    
T = Trace of Precipitation, MM = Missing Value Source: NWS Daily Summary

Daily Weather History Graph

Daily Weather History Graph

Search for Another Location

Airport or City:

Trip Planner

Search our weather history database for the weather conditions in past years. The results will help you decide how hot, cold, wet, or windy it might be!

Date:

Astronomy

Feb. 16, 2013 Rise Set
Actual Time 7:28 AM EST 6:10 PM EST
Civil Twilight 7:00 AM EST 6:38 PM EST
Nautical Twilight 6:28 AM EST 7:11 PM EST
Astronomical Twilight 5:55 AM EST 7:43 PM EST
Moon 10:35 AM EST (2/16) 12:14 AM EST (2/16)
Length of Visible Light 11h 38m
Length of Day
10h 41m
Waxing Crescent, 39% of the Moon is Illuminated
Feb 16
Waxing Crescent
Feb 17
First Quarter
Feb 25
Full
Mar 4
Last Quarter
Mar 11
New

Hourly Weather History & Observations

Time (EST) Temp. Windchill Dew Point Humidity Pressure Visibility Wind Dir Wind Speed Gust Speed Precip Events Conditions
12:52 AM 21.9 °F 17.2 °F 10.0 °F 60% 30.14 in 10.0 mi WNW 3.5 mph - N/A   Clear
1:52 AM 19.0 °F 11.1 °F 10.9 °F 71% 30.13 in 10.0 mi WSW 5.8 mph - N/A   Clear
2:52 AM 19.9 °F - 12.9 °F 74% 30.11 in 10.0 mi Calm Calm - N/A   Overcast
3:52 AM 19.9 °F - 12.9 °F 74% 30.09 in 10.0 mi Calm Calm - N/A   Overcast
4:52 AM 21.2 °F 16.4 °F 14.0 °F 74% 30.06 in 10.0 mi West 3.5 mph - N/A   Overcast
5:52 AM 21.0 °F - 14.0 °F 74% 30.08 in 10.0 mi Calm Calm - N/A   Overcast
6:52 AM 19.0 °F - 14.0 °F 81% 30.07 in 10.0 mi Calm Calm - N/A   Overcast
7:52 AM 21.0 °F - 16.0 °F 81% 30.07 in 8.0 mi Calm Calm - 0.00 in   Overcast
8:52 AM 21.9 °F 15.7 °F 18.0 °F 85% 30.07 in 7.0 mi SW 4.6 mph - 0.00 in   Overcast
9:50 AM 24.8 °F 16.9 °F 19.4 °F 80% 30.03 in 7.0 mi WSW 6.9 mph - 0.00 in Snow Light Snow
9:52 AM 24.1 °F 16.0 °F 18.0 °F 77% 30.06 in 7.0 mi WSW 6.9 mph - 0.00 in   Overcast
10:52 AM 25.0 °F 14.8 °F 16.0 °F 69% 30.05 in 4.0 mi West 10.4 mph - 0.00 in Snow Light Snow
11:30 AM 28.4 °F 15.8 °F 15.8 °F 59% 30.02 in 6.0 mi West 18.4 mph 23.0 mph 0.00 in   Haze
11:35 AM 24.8 °F 12.4 °F 17.6 °F 74% 30.02 in 0.8 mi WNW 15.0 mph 23.0 mph 0.00 in Snow Light Snow
11:47 AM 23.0 °F 13.1 °F 17.6 °F 80% 30.02 in 1.5 mi WNW 9.2 mph - 0.00 in Snow Light Snow
11:50 AM 23.0 °F 13.9 °F 17.6 °F 80% 30.02 in 3.0 mi WNW 8.1 mph - 0.00 in Snow Light Snow
11:52 AM 24.1 °F 15.2 °F 18.0 °F 77% 30.05 in 7.0 mi WNW 8.1 mph - 0.00 in Snow Light Snow
12:05 PM 26.6 °F 20.0 °F 15.8 °F 64% 30.01 in 10.0 mi WNW 5.8 mph - N/A   Mostly Cloudy
12:52 PM 26.1 °F 16.2 °F 10.9 °F 53% 30.03 in 10.0 mi West 10.4 mph - N/A   Overcast
1:52 PM 26.1 °F 15.0 °F 12.0 °F 55% 30.01 in 10.0 mi West 12.7 mph - 0.00 in Snow Light Snow
2:52 PM 25.0 °F 13.1 °F 12.9 °F 60% 30.01 in 9.0 mi WNW 13.8 mph - 0.00 in Snow Light Snow
3:52 PM 24.1 °F 12.5 °F 14.0 °F 65% 30.02 in 1.5 mi WNW 12.7 mph - 0.00 in Snow Light Snow
3:56 PM 23.0 °F 14.7 °F 15.8 °F 74% 29.99 in 1.0 mi WNW 6.9 mph - 0.00 in Snow Light Snow
4:03 PM 23.0 °F 13.1 °F 14.0 °F 68% 29.99 in 2.0 mi West 9.2 mph - 0.00 in Snow Light Snow
4:08 PM 23.0 °F 14.7 °F 12.2 °F 63% 29.99 in 5.0 mi WNW 6.9 mph - 0.00 in Snow Light Snow
4:52 PM 23.0 °F 11.1 °F 10.9 °F 60% 30.04 in 9.0 mi WNW 12.7 mph 23.0 mph 0.00 in Snow Light Snow
5:52 PM 21.0 °F 9.3 °F 8.1 °F 57% 30.06 in 10.0 mi WNW 11.5 mph - 0.00 in   Mostly Cloudy
6:52 PM 19.9 °F 6.7 °F 3.9 °F 50% 30.08 in 10.0 mi West 13.8 mph - N/A   Overcast
7:52 PM 19.9 °F 6.7 °F 7.0 °F 57% 30.08 in 10.0 mi WNW 13.8 mph - N/A   Overcast
8:52 PM 17.6 °F 3.7 °F 8.6 °F 68% 30.06 in 10.0 mi WNW 13.8 mph - N/A   Clear
9:52 PM 18.0 °F 6.1 °F 9.0 °F 68% 30.10 in 9.0 mi WNW 10.4 mph - 0.00 in   Overcast
10:52 PM 16.0 °F 4.4 °F 9.0 °F 74% 30.10 in 10.0 mi West 9.2 mph - N/A   Clear
11:52 PM 15.1 °F 5.2 °F 9.0 °F 77% 30.10 in 10.0 mi West 6.9 mph - N/A   Clear